Miscellaneous Local Product
Issued by NWS North Platte, NE

Home | Current Version | Previous Version | Graphics & Text | Print | Product List | Glossary On
Versions: 1 2 3 4 5 6 7 8 9 10 11 12 13 14 15 16 17 18 19 20 21 22 23 24 25 26 27 28 29 30 31 32 33 34 35 36 37 38 39 40 41 42 43 44 45 46 47 48 49 50
000
AXUS43 KLBF 281110
MISLBF


WESTERN AND NORTH CENTRAL NEBRASKA HOURLY WEATHER ROUNDUP
NATIONAL WEATHER SERVICE NORTH PLATTE NE
500 AM CST WED JAN 28 2015

***STATIONS NOT REPORTING VARIABLES SUCH AS SKY/WEATHER OR
PRESSURE ARE PROVIDED BY THE NEBRASKA DEPARTMENT OF
ROADS...RAWS...AND APRS NETWORKS...AND ARE NOT UNDER
NATIONAL WEATHER SERVICE QUALITY CONTROL***

...OBSERVATIONS IN AND NEAR THE EASTERN PANHANDLE OF NEBRASKA...

CITY           SKY/WX    TMP DP  RH WIND       PRES   REMARKS
PINE RIDGE     MOCLDY    45  29  53 W8        29.83F
CHADRON        MOCLDY    34  27  75 S3        29.87R
ALLIANCE       CLOUDY    45  33  63 W22       29.87F
SIDNEY         CLOUDY    43  29  57 NW15      29.94F
WHITECLAY        N/A     52  29  41 W24         N/A
CRESCENT LAKE    N/A     43  27  53 W6          N/A
LISCO            N/A     35  27  72 W9          N/A  WCI  28
LEWELLEN         N/A     35  29  79 NW3         N/A
$$

...OBSERVATIONS IN NORTH CENTRAL NEBRASKA...

CITY           SKY/WX    TMP DP  RH WIND       PRES   REMARKS
VALENTINE      MOCLDY    37  30  75 SW15      29.78F WCI  28
THEDFORD       PTCLDY    39  31  72 W6        29.82F WCI  35
AINSWORTH      PTCLDY    40  30  65 SW9       29.78F WCI  35
O`NEILL        CLEAR     34  32  92 S8        29.79F WCI  27
ORD            CLEAR     25  22  88 NW3       29.81F
BROKEN BOW     CLEAR     33  28  81 N3        29.82F
BROWNLEE         N/A     47  29  49 SW3         N/A
SPRINGVIEW       N/A     27  25  91 CALM        N/A
HALSEY           N/A     46  29  51 W7          N/A
BREWSTER         N/A     34  29  82 CALM        N/A
ROSE             N/A     38  33  84 S3          N/A
NEWPORT          N/A     37  31  79 SW7         N/A  WCI  32
SARGENT          N/A     29  27  92 CALM        N/A
COMSTOCK         N/A     38  33  85 CALM        N/A
CHAMBERS         N/A     32  28  83 S3          N/A
EWING            N/A     34  31  88 S3          N/A
$$

...OBSERVATIONS IN SOUTHWEST NEBRASKA AND FAR NORTHEAST COLORADO...

CITY           SKY/WX    TMP DP  RH WIND       PRES   REMARKS
WRAY           FAIR      38  30  73 NW5       29.91R WCI  34
HOLYOKE        FAIR      46  30  53 NW13      29.90F
IMPERIAL       PTCLDY    41  29  62 N13       29.88S
OGALLALA       MOCLDY    50  32  50 NW14      29.88F
NORTH PLATTE   CLEAR     28  24  85 NW9       29.85F WCI  19
MCCOOK         CLEAR     31  26  82 W9        29.85R WCI  23
LEXINGTON      CLEAR     31  29  91 NW12G21   29.82S WCI  22
BRADY            N/A     33  27  80 CALM        N/A
GOTHENBURG       N/A     35  27  73 NW5         N/A  WCI  31
CALLAWAY         N/A     49  33  54 NW13        N/A
$$

...NORTH PLATTE AREA...

CITY           SKY/WX    TMP DP  RH WIND       PRES   REMARKS
AIRPORT        CLEAR     28  24  85 NW9       29.85F WCI  19
DOWNTOWN         N/A     38  29  69 W3          N/A
$$

...SOME WEATHER OBSERVATIONS FROM AROUND THE REGION...

CITY           SKY/WX    TMP DP  RH WIND       PRES   REMARKS
DENVER         CLOUDY    45  25  45 W9        29.99F
LARAMIE        CLOUDY    37  28  70 W13       30.08S WCI  29
CHEYENNE       CLOUDY    46  29  51 W25G35    30.00F
SCOTTSBLUFF      N/A    N/A N/A N/A MISG      29.93S
RAPID CITY     MOCLDY    43  27  53 NW9       29.76F
PIERRE         CLOUDY    30  29  96 NW6       29.69S WCI  24
WINNER         FAIR      52  31  44 S8        29.72F
SIOUX FALLS    MOCLDY    34  30  85 SE14      29.83F WCI  25
OMAHA          PTCLDY    35  29  78 SE12      29.91F WCI  27
GRAND ISLAND   CLEAR     26  23  88 N3        29.83F
KANSAS CITY    CLEAR     42  30  62 SE14      29.95F
WICHITA        CLEAR     40  33  76 S6        29.92F
HAYS           CLEAR     43  28  56 SW9       29.84F
LIBERAL        PTCLDY    41  32  70 SW9       29.91F
GOODLAND       MOCLDY    38  30  73 NW14      29.87R WCI  30
$$



USA.gov is the U.S. government's official web portal to all federal, state and local government web resources and services.